Miscellaneous Local Product
Issued by NWS Hastings, NE

Home | Current Version | Previous Version | Graphics & Text | Print | Product List | Glossary On
Versions: 1 2 3 4 5 6 7 8 9 10 11 12 13 14 15 16 17 18 19 20 21 22 23 24 25 26 27 28 29 30 31 32 33 34 35 36 37 38 39 40 41 42 43 44 45 46 47 48 49 50
000
AXUS43 KGID 301102
MISGRI

GID CWA HOURLY WEATHER ROUNDUP
NATIONAL WEATHER SERVICE HASTINGS NE
600 AM CDT THU JUL 30 2015

NOTE: "FAIR" INDICATES FEW OR NO CLOUDS BELOW 12,000 FEET WITH NO
SIGNIFICANT WEATHER AND/OR OBSTRUCTIONS TO VISIBILITY.

...SOUTH CENTRAL NEBRASKA...

CITY           SKY/WX    TMP DP  RH WIND       PRES   REMARKS
GRAND ISLAND   CLEAR     59  53  80 SW5       30.22S
HASTINGS       CLEAR     60  52  74 SW3       30.23S
KEARNEY        CLEAR     59  52  77 SW7       30.23F
ORD            CLEAR     56  54  93 CALM      30.20F
YORK           CLEAR     54  54 100 SW6       30.21F
AURORA         CLEAR     58  54  86 SW7       30.21F
LEXINGTON      CLEAR     54  52  92 E3        30.24F
HOLDREGE       CLEAR     57  51  80 CALM      30.23F
HEBRON         CLEAR     56  53  92 CALM      30.21S

...NEBRASKA PANHANDLE...

CITY           SKY/WX    TMP DP  RH WIND       PRES   REMARKS
CHADRON        CLEAR     51  48  89 W3        30.24R
ALLIANCE       MOCLDY    56  50  80 S7        30.24F
SCOTTSBLUFF    CLEAR     57  51  80 E6        30.24F
SIDNEY         CLEAR     58  55  90 S9        30.28S

...WESTERN AND NORTH CENTRAL NEBRASKA...

CITY           SKY/WX    TMP DP  RH WIND       PRES   REMARKS
VALENTINE      CLEAR     57  50  77 SW9       30.21R
AINSWORTH      CLEAR     59  54  83 W3        30.22R
ONEILL         CLEAR     59  54  83 SW6       30.19S
BROKEN BOW     CLEAR     61  54  77 S5        30.22F
IMPERIAL       CLEAR     54  50  86 S5        30.27S
NORTH PLATTE   CLEAR     60  53  77 S7        30.25R
MCCOOK         CLEAR     56  52  86 CALM      30.25S

...EASTERN NEBRASKA...

CITY           SKY/WX    TMP DP  RH WIND       PRES   REMARKS
NORFOLK        CLEAR     55  52  89 CALM      30.19S
SO SIOUX CITY  CLEAR     64  57  78 CALM      30.15R
TEKAMAH        CLEAR     61  58  90 SE5       30.16S
COLUMBUS       CLEAR     61  52  72 W6        30.20R
ALBION         CLEAR     62  51  67 CALM      30.20S
OMAHA EPPLEY   CLEAR     65  60  84 SE5       30.17F
OFFUTT AFB     CLEAR     56  55  98 CALM      30.17S
MILLARD        CLEAR     61  59  94 CALM      30.18S
LINCOLN        CLEAR     60  57  89 S3        30.20S
NEBRASKA CITY  CLEAR     62  58  87 CALM      30.19S
BEATRICE       CLEAR     58  58  98 CALM      30.20S
FALLS CITY     CLEAR     61  61 100 CALM      30.18S FOG

...NORTHERN KANSAS...

CITY           SKY/WX    TMP DP  RH WIND       PRES   REMARKS
GOODLAND       CLEAR     57  55  93 S5        30.28S
HILL CITY      CLOUDY    67  62  84 NE5       30.23S
NORTON         PTSUNNY   57  54  88 CALM      30.24S
PHILLIPSBURG   CLEAR     63  63 100 CALM      30.23S
SMITH CENTER   CLEAR     57  55  94 CALM      30.23S
HAYS           CLOUDY    68  57  68 NE6       30.22R
RUSSELL        CLOUDY    66  61  84 NE6       30.20S
CONCORDIA      FOG       61  60  97 CALM      30.21R VSB 1/2
SALINA         MOCLDY    68  64  87 NW6       30.19R
TOPEKA         FOG       64  64 100 CALM      30.17F VSB 1/4



USA.gov is the U.S. government's official web portal to all federal, state and local government web resources and services.